Weather in Zhemchuzhnikovo

Russia / Tula Oblast     53°56′11″N   36°48′36″E
temp.,
°C
wind,
m/s
gust,
m/s
humid.,
%
clouds,
%
prec.,
mm/h
press.,
hPa
HPBL,
m
16 april, fri
fri1600:00+10e2287100 0.3 101456
03:00+9ese349259 0.4 101462
06:00+8ese3392100 0.0 101555
09:00+12ese3574100 0.0 1016421
12:00+15ese4656100 0.1 10161445
15:00+16ese5756100 1.2 10161439
18:00+13se477467 3.4 1016673
21:00+10e238659 4.1 101655
17 april, sat
sat1700:00+8wnw018291 0.2 101810
03:00+8ene118191 0.2 101810
06:00+8ne2280100 0.0 101918
09:00+11ne4784100 0.4 1018310
12:00+11e5885100 4.1 1017689
15:00+9sse2493100 17.6 1017286
18:00+8se4791100 2.7 1018509
21:00+6s2595100 7.0 1019350
18 april, sun
sun1800:00+5sse2393100 0.1 102087
03:00+4e2291100 0.1 102029
06:00+4e2595100 0.0 1020109
09:00+6e2492100 0.3 1020232
12:00+9e347466 2.2 1020892
15:00+11ese356086 2.5 10201425
18:00+9sse237195 0.4 1020191
21:00+7ene5890100 0.6 1021289
19 april, mon
mon1900:00+6e5995100 0.0 1021331
03:00+6e5895100 0.0 1021337
06:00+6e51093100 0.0 1021410
09:00+8e688487 0.0 1022564
12:00+12e6764100 0.0 10201310
15:00+11e7971100 0.5 10201067
18:00+10ene71177100 0.1 1019935
21:00+8e71489100 0.8 1018809
20 april, tue
tue2000:00+8e81587100 1.2 1017732
03:00+7e81684100 4.1 1015842
06:00+6e101893100 3.4 1012847
09:00+6e111992100 9.3 1009939
12:00+7e122492100 8.4 10051247
15:00+7ese122391100 14.9 10021244
18:00+8ese101993100 2.3 9991137
21:00+11sse81492100 10.5 999907